Weather History for Ozark, AL

Change the Weather History Date:

Friday, March 15, 2013

  Actual Average Record
Temperature  
Mean Temperature 54 °F -  
Max Temperature 74 °F 67 °F 85 °F (2012)
Min Temperature 34 °F 46 °F 34 °F (2013)
Degree Days  
Heating Degree Days 11    
Growing Degree Days 4 (Base 50)    
Moisture  
Dew Point 38 °F    
Average Humidity 56    
Maximum Humidity 87    
Minimum Humidity 29    
Precipitation  
Precipitation 0.00 in - - ()
Sea Level Pressure  
Sea Level Pressure 30.21 in    
Wind  
Wind Speed 6 mph (SSW)    
Max Wind Speed 15 mph    
Max Gust Speed 17 mph    
Visibility 10 miles    
Events      
Averages and records for this station are not official NWS values.
T = Trace of Precipitation, MM = Missing Value Source: NWS Daily Summary

Daily Weather History Graph

Daily Weather History Graph

Search for Another Location

Airport:

Trip Planner

Search our weather history database for the weather conditions in past years. The results will help you decide how hot, cold, wet, or windy it might be!

Date:

Astronomy

Mar. 15, 2013 Rise Set
Actual Time 6:52 AM CDT 6:51 PM CDT
Civil Twilight 6:28 AM CDT 7:15 PM CDT
Nautical Twilight 6:00 AM CDT 7:43 PM CDT
Astronomical Twilight 5:32 AM CDT 8:11 PM CDT
Moon 8:59 AM CDT (3/15) 10:46 PM CDT (3/15)
Length of Visible Light 12h 46m
Length of Day
11h 58m
Waxing Crescent, 15% of the Moon is Illuminated
Mar 15
Waxing Crescent
Mar 19
First Quarter
Mar 27
Full
Apr 2
Last Quarter
Apr 10
New

Hourly Weather History & Observations

Time (CDT) Temp. Windchill Dew Point Humidity Pressure Visibility Wind Dir Wind Speed Gust Speed Precip Events Conditions
12:58 AM 39.2 °F - 30.6 °F 71% 30.30 in 10.0 mi South 2.3 mph - N/A   Clear
1:58 AM 38.1 °F 35.7 °F 31.1 °F 76% 30.29 in 10.0 mi West 3.5 mph - N/A   Clear
2:58 AM 37.4 °F - 30.9 °F 77% 30.28 in 10.0 mi Calm Calm - N/A   Clear
3:58 AM 37.8 °F 35.3 °F 32.9 °F 83% 30.25 in 10.0 mi South 3.5 mph - N/A   Clear
4:58 AM 38.1 °F - 30.2 °F 73% 30.27 in 10.0 mi WNW 2.3 mph - N/A   Clear
5:58 AM 36.3 °F - 32.7 °F 87% 30.27 in 10.0 mi ESE 2.3 mph - N/A   Clear
6:58 AM 34.5 °F - 30.9 °F 87% 30.28 in 10.0 mi Calm Calm - N/A   Clear
7:58 AM 39.9 °F - 35.8 °F 85% 30.29 in 10.0 mi South 2.3 mph - N/A   Clear
8:58 AM 48.9 °F - 34.9 °F 58% 30.30 in 10.0 mi WSW 2.3 mph - N/A   Clear
9:58 AM 58.3 °F - 35.1 °F 42% 30.30 in 10.0 mi SW 6.9 mph - N/A   Clear
10:58 AM 63.9 °F - 34.7 °F 34% 30.28 in 10.0 mi West 8.1 mph - N/A   Clear
11:58 AM 67.8 °F - 37.0 °F 32% 30.26 in 10.0 mi SW 9.2 mph - N/A   Clear
12:58 PM 70.0 °F - 38.7 °F 32% 30.23 in 10.0 mi SSW 10.4 mph - N/A   Clear
1:58 PM 72.5 °F - 39.0 °F 30% 30.18 in 10.0 mi SSW 12.7 mph - N/A   Clear
2:58 PM 73.8 °F - 40.1 °F 30% 30.15 in 10.0 mi SW 8.1 mph 17.3 mph N/A   Clear
3:58 PM 74.1 °F - 39.7 °F 29% 30.13 in 10.0 mi WSW 12.7 mph - N/A   Clear
4:58 PM 73.8 °F - 40.5 °F 30% 30.12 in 10.0 mi SW 13.8 mph 17.3 mph N/A   Clear
5:20 PM 73.4 °F - 41.0 °F 31% 30.11 in 10.0 mi South 15.0 mph - N/A   Clear
5:58 PM 69.6 °F - 41.5 °F 36% 30.13 in 10.0 mi SSW 15.0 mph - N/A   Clear
6:58 PM 63.9 °F - 41.4 °F 44% 30.14 in 10.0 mi SSW 11.5 mph - N/A   Clear
7:58 PM 60.6 °F - 43.9 °F 54% 30.15 in 10.0 mi South 10.4 mph - N/A   Clear
8:58 PM 58.3 °F - 44.6 °F 60% 30.16 in 10.0 mi SSW 10.4 mph - N/A   Clear
9:58 PM 56.3 °F - 45.3 °F 67% 30.16 in 10.0 mi SSW 10.4 mph - N/A   Clear
10:58 PM 54.1 °F - 45.7 °F 73% 30.15 in 10.0 mi SSW 9.2 mph - N/A   Clear
11:58 PM 52.2 °F - 46.0 °F 80% 30.14 in 10.0 mi SSW 9.2 mph - N/A   Clear